DAL4215 KSAN-KLAS

Flight info

Callsign DAL4215
Flight time 0h 59m
Altitude 29000
Route PADRZ2 CHKNN SEBBY YELAH MISEN RNDRZ4
Aircraft A339/H-SADE1E2E3GHIJ3J5M1P2RWXY/LB2D1

Departure

Time 2026-05-06 05:01
Airport San Diego International Airport (KSAN)

Arrival

Time 2026-05-06 06:00
Airport Harry Reid International Airport (KLAS)
Time Latitude Longitude Altitude Speed Heading
2026-05-06 04:25 32.73389 -117.20479 28 ft 0 kts 88°
2026-05-06 04:48 32.73389 -117.20482 28 ft 3 kts 88°
2026-05-06 04:48 32.73387 -117.20511 27 ft 4 kts 73°
2026-05-06 04:48 32.73378 -117.20540 26 ft 4 kts 56°
2026-05-06 04:49 32.73362 -117.20566 27 ft 4 kts 44°
2026-05-06 04:49 32.73343 -117.20587 28 ft 4 kts 43°
2026-05-06 04:49 32.73337 -117.20594 26 ft 0 kts 45°
2026-05-06 04:52 32.73338 -117.20592 27 ft 0 kts 44°
2026-05-06 04:52 32.73381 -117.20566 27 ft 9 kts 19°
2026-05-06 04:52 32.73450 -117.20557 28 ft 11 kts
2026-05-06 04:52 32.73513 -117.20515 28 ft 6 kts 52°
2026-05-06 04:53 32.73540 -117.20466 28 ft 8 kts 52°
2026-05-06 04:53 32.73577 -117.20410 28 ft 9 kts 57°
2026-05-06 04:53 32.73583 -117.20333 28 ft 10 kts 94°
2026-05-06 04:53 32.73567 -117.20242 28 ft 12 kts 104°
2026-05-06 04:54 32.73543 -117.20141 29 ft 13 kts 106°
2026-05-06 04:54 32.73514 -117.20031 29 ft 15 kts 107°
2026-05-06 04:54 32.73484 -117.19907 29 ft 16 kts 105°
2026-05-06 04:54 32.73451 -117.19772 29 ft 18 kts 106°
2026-05-06 04:55 32.73415 -117.19627 29 ft 19 kts 107°
2026-05-06 04:55 32.73377 -117.19472 29 ft 20 kts 105°
2026-05-06 04:55 32.73336 -117.19310 28 ft 21 kts 107°
2026-05-06 04:55 32.73297 -117.19138 33 ft 22 kts 104°
2026-05-06 04:56 32.73254 -117.18960 28 ft 23 kts 105°
2026-05-06 04:56 32.73210 -117.18777 39 ft 23 kts 106°
2026-05-06 04:56 32.73163 -117.18592 32 ft 24 kts 107°
2026-05-06 04:56 32.73118 -117.18398 32 ft 25 kts 105°
2026-05-06 04:57 32.73070 -117.18200 32 ft 25 kts 106°
2026-05-06 04:57 32.73019 -117.17996 32 ft 26 kts 107°
2026-05-06 04:57 32.72969 -117.17795 32 ft 16 kts 107°
2026-05-06 04:57 32.72953 -117.17713 32 ft 11 kts 93°
2026-05-06 04:58 32.72955 -117.17689 32 ft 0 kts 82°
2026-05-06 04:59 32.72958 -117.17673 32 ft 7 kts 78°
2026-05-06 04:59 32.73004 -117.17622 32 ft 10 kts 11°
2026-05-06 04:59 32.73038 -117.17670 32 ft 0 kts 289°
2026-05-06 05:00 32.73107 -117.17952 31 ft 82 kts 283°
2026-05-06 05:00 32.73346 -117.18942 29 ft 162 kts 286°
2026-05-06 05:00 32.73676 -117.20401 368 ft 194 kts 283°
2026-05-06 05:01 32.74180 -117.21870 1431 ft 189 kts 294°
2026-05-06 05:01 32.74842 -117.23233 2417 ft 197 kts 299°
2026-05-06 05:01 32.75628 -117.24667 3083 ft 216 kts 302°
2026-05-06 05:01 32.76518 -117.26201 3626 ft 234 kts 306°
2026-05-06 05:02 32.77559 -117.27788 3998 ft 253 kts 311°
2026-05-06 05:02 32.78674 -117.29430 4687 ft 256 kts 309°
2026-05-06 05:02 32.79733 -117.31150 5347 ft 261 kts 307°
2026-05-06 05:02 32.80833 -117.32880 6050 ft 264 kts 310°
2026-05-06 05:03 32.81961 -117.34632 6723 ft 268 kts 309°
2026-05-06 05:03 32.83084 -117.36416 7399 ft 272 kts 309°
2026-05-06 05:03 32.84225 -117.38235 7551 ft 274 kts 309°
2026-05-06 05:03 32.85368 -117.40054 7647 ft 275 kts 309°
2026-05-06 05:04 32.86518 -117.41871 7752 ft 275 kts 309°
2026-05-06 05:04 32.87672 -117.43689 7844 ft 275 kts 309°
2026-05-06 05:04 32.88830 -117.45504 7949 ft 276 kts 309°
2026-05-06 05:04 32.89994 -117.47328 7973 ft 277 kts 309°
2026-05-06 05:05 32.91162 -117.49160 8374 ft 278 kts 309°
2026-05-06 05:05 32.92333 -117.50993 9139 ft 279 kts 309°
2026-05-06 05:05 32.93517 -117.52841 9843 ft 282 kts 309°
2026-05-06 05:05 32.94725 -117.54725 10319 ft 294 kts 309°
2026-05-06 05:06 32.96013 -117.56731 10512 ft 315 kts 309°
2026-05-06 05:06 32.97384 -117.58870 10750 ft 332 kts 309°
2026-05-06 05:06 32.98792 -117.61074 11343 ft 336 kts 309°
2026-05-06 05:06 33.00214 -117.63302 11952 ft 340 kts 309°
2026-05-06 05:07 33.01653 -117.65557 12521 ft 345 kts 309°
2026-05-06 05:07 33.03111 -117.67842 13128 ft 348 kts 309°
2026-05-06 05:07 33.04566 -117.70119 13760 ft 351 kts 309°
2026-05-06 05:07 33.06078 -117.72410 14315 ft 353 kts 313°
2026-05-06 05:08 33.07828 -117.74465 14887 ft 354 kts 321°
2026-05-06 05:08 33.09724 -117.76350 15426 ft 357 kts 322°
2026-05-06 05:08 33.11629 -117.78267 15964 ft 360 kts 321°
2026-05-06 05:08 33.13544 -117.80212 16519 ft 363 kts 321°
2026-05-06 05:09 33.15468 -117.82173 17061 ft 366 kts 321°
2026-05-06 05:09 33.17409 -117.84154 17608 ft 369 kts 321°
2026-05-06 05:09 33.19366 -117.86152 18150 ft 371 kts 321°
2026-05-06 05:09 33.21349 -117.88142 18657 ft 374 kts 322°
2026-05-06 05:10 33.23375 -117.90112 19135 ft 377 kts 323°
2026-05-06 05:10 33.25418 -117.92085 19611 ft 379 kts 323°
2026-05-06 05:10 33.27477 -117.94080 20093 ft 382 kts 323°
2026-05-06 05:10 33.29549 -117.96095 20572 ft 386 kts 323°
2026-05-06 05:11 33.31633 -117.98129 21050 ft 388 kts 323°
2026-05-06 05:11 33.33734 -118.00184 21533 ft 391 kts 323°
2026-05-06 05:11 33.35845 -118.02251 22021 ft 394 kts 323°
2026-05-06 05:11 33.37984 -118.04347 22511 ft 398 kts 323°
2026-05-06 05:12 33.39310 -118.05647 22799 ft 400 kts 323°
2026-05-06 05:12 33.39745 -118.06074 22900 ft 400 kts 324°
2026-05-06 05:12 33.41907 -118.08196 23370 ft 404 kts 324°
2026-05-06 05:12 33.44086 -118.10333 23823 ft 407 kts 324°
2026-05-06 05:13 33.46283 -118.12489 24240 ft 410 kts 324°
2026-05-06 05:13 33.48497 -118.14662 24657 ft 413 kts 324°
2026-05-06 05:13 33.50721 -118.16848 25070 ft 415 kts 324°
2026-05-06 05:13 33.52965 -118.19055 25482 ft 418 kts 324°
2026-05-06 05:14 33.55221 -118.21275 25882 ft 421 kts 324°
2026-05-06 05:14 33.57581 -118.23345 26260 ft 420 kts 332°
2026-05-06 05:14 33.60138 -118.25047 26593 ft 420 kts 340°
2026-05-06 05:14 33.62804 -118.26482 26990 ft 421 kts 341°
2026-05-06 05:15 33.65483 -118.27940 27378 ft 424 kts 341°
2026-05-06 05:15 33.68220 -118.29215 27734 ft 420 kts 351°
2026-05-06 05:15 33.71076 -118.29729 28121 ft 412 kts
2026-05-06 05:15 33.73909 -118.29472 28509 ft 406 kts 16°
2026-05-06 05:16 33.76595 -118.28499 28870 ft 402 kts 27°
2026-05-06 05:16 33.79021 -118.26887 28973 ft 397 kts 38°
2026-05-06 05:16 33.81077 -118.24717 29057 ft 391 kts 49°
2026-05-06 05:17 33.84326 -118.19389 29081 ft 398 kts 56°
2026-05-06 05:17 33.87530 -118.13973 29082 ft 397 kts 55°
2026-05-06 05:18 33.90745 -118.08566 29081 ft 397 kts 55°
2026-05-06 05:18 33.93955 -118.03157 29081 ft 396 kts 55°
2026-05-06 05:19 33.97148 -117.97762 29086 ft 396 kts 55°
2026-05-06 05:19 34.00339 -117.92360 29059 ft 396 kts 55°
2026-05-06 05:20 34.03530 -117.86949 29077 ft 396 kts 55°
2026-05-06 05:20 34.06720 -117.81530 29081 ft 396 kts 55°
2026-05-06 05:21 34.09988 -117.76187 29081 ft 396 kts 51°
2026-05-06 05:21 34.13494 -117.71107 29090 ft 396 kts 51°
2026-05-06 05:22 34.17010 -117.65971 29095 ft 397 kts 51°
2026-05-06 05:22 34.20504 -117.60855 29086 ft 391 kts 51°
2026-05-06 05:23 34.23994 -117.55741 29089 ft 394 kts 51°
2026-05-06 05:23 34.29205 -117.48084 29059 ft 393 kts 51°
2026-05-06 05:24 34.32676 -117.42979 29054 ft 393 kts 51°
2026-05-06 05:24 34.36144 -117.37872 29049 ft 393 kts 51°
2026-05-06 05:25 34.39610 -117.32759 29044 ft 393 kts 51°
2026-05-06 05:25 34.43075 -117.27640 29029 ft 393 kts 51°
2026-05-06 05:26 34.46536 -117.22519 29076 ft 393 kts 51°
2026-05-06 05:26 34.49998 -117.17389 29015 ft 393 kts 51°
2026-05-06 05:27 34.53459 -117.12254 29020 ft 393 kts 51°
2026-05-06 05:27 34.56888 -117.07157 28993 ft 391 kts 51°
2026-05-06 05:28 34.60354 -117.01999 29002 ft 392 kts 51°
2026-05-06 05:28 34.63795 -116.96875 28996 ft 391 kts 51°
2026-05-06 05:29 34.67210 -116.91777 29006 ft 391 kts 51°
2026-05-06 05:29 34.70647 -116.86641 29015 ft 392 kts 51°
2026-05-06 05:30 34.74091 -116.81485 29020 ft 393 kts 51°
2026-05-06 05:30 34.77536 -116.76321 29027 ft 393 kts 51°
2026-05-06 05:31 34.79250 -116.73750 28926 ft 389 kts 51°
2026-05-06 05:31 34.80951 -116.71195 28374 ft 388 kts 51°
2026-05-06 05:31 34.82651 -116.68640 27652 ft 389 kts 51°
2026-05-06 05:31 34.84363 -116.66096 26917 ft 387 kts 49°
2026-05-06 05:32 34.86240 -116.63752 26103 ft 388 kts 43°
2026-05-06 05:32 34.88318 -116.61653 25318 ft 388 kts 39°
2026-05-06 05:32 34.90438 -116.59630 24635 ft 386 kts 39°
2026-05-06 05:32 34.92515 -116.57625 24534 ft 383 kts 39°
2026-05-06 05:33 34.94628 -116.55574 24423 ft 391 kts 40°
2026-05-06 05:33 34.96756 -116.53508 24304 ft 390 kts 40°
2026-05-06 05:33 34.98875 -116.51449 24198 ft 389 kts 40°
2026-05-06 05:33 35.00992 -116.49391 24086 ft 389 kts 40°
2026-05-06 05:34 35.03111 -116.47330 23972 ft 389 kts 40°
2026-05-06 05:34 35.05228 -116.45270 23938 ft 389 kts 40°
2026-05-06 05:34 35.07346 -116.43210 23929 ft 390 kts 40°
2026-05-06 05:34 35.09450 -116.41143 23870 ft 387 kts 41°
2026-05-06 05:35 35.11396 -116.38887 23448 ft 386 kts 47°
2026-05-06 05:35 35.13182 -116.36451 22805 ft 385 kts 49°
2026-05-06 05:35 35.14962 -116.34032 22133 ft 381 kts 48°
2026-05-06 05:35 35.16722 -116.31660 21977 ft 377 kts 48°
2026-05-06 05:36 35.18503 -116.29263 21907 ft 385 kts 48°
2026-05-06 05:36 35.20302 -116.26841 21660 ft 382 kts 48°
2026-05-06 05:36 35.22070 -116.24459 21400 ft 375 kts 48°
2026-05-06 05:36 35.23814 -116.22107 21157 ft 372 kts 48°
2026-05-06 05:37 35.25556 -116.19755 21000 ft 374 kts 48°
2026-05-06 05:37 35.27305 -116.17393 20930 ft 374 kts 47°
2026-05-06 05:37 35.29049 -116.15035 20924 ft 374 kts 47°
2026-05-06 05:37 35.30797 -116.12671 20933 ft 374 kts 48°
2026-05-06 05:38 35.32543 -116.10307 20932 ft 374 kts 48°
2026-05-06 05:38 35.34287 -116.07944 20930 ft 374 kts 48°
2026-05-06 05:38 35.36033 -116.05577 20932 ft 374 kts 48°
2026-05-06 05:38 35.37769 -116.03222 20755 ft 372 kts 47°
2026-05-06 05:39 35.39499 -116.00874 20448 ft 371 kts 47°
2026-05-06 05:39 35.41230 -115.98522 20217 ft 371 kts 47°
2026-05-06 05:39 35.42934 -115.96204 20124 ft 361 kts 48°
2026-05-06 05:39 35.44584 -115.93959 19995 ft 348 kts 48°
2026-05-06 05:40 35.46189 -115.91772 19253 ft 347 kts 47°
2026-05-06 05:40 35.47820 -115.89549 18482 ft 351 kts 47°
2026-05-06 05:40 35.49436 -115.87347 17920 ft 354 kts 47°
2026-05-06 05:40 35.51111 -115.85062 17256 ft 356 kts 47°
2026-05-06 05:41 35.52759 -115.82813 16631 ft 352 kts 47°
2026-05-06 05:41 35.54339 -115.80654 16394 ft 336 kts 47°
2026-05-06 05:41 35.55863 -115.78570 16236 ft 319 kts 47°
2026-05-06 05:41 35.57307 -115.76592 16090 ft 303 kts 47°
2026-05-06 05:42 35.58687 -115.74704 15859 ft 292 kts 47°
2026-05-06 05:42 35.60048 -115.72847 15679 ft 294 kts 47°
2026-05-06 05:42 35.61427 -115.70986 15601 ft 295 kts 46°
2026-05-06 05:42 35.62806 -115.69132 15529 ft 294 kts 46°
2026-05-06 05:43 35.64184 -115.67277 15441 ft 294 kts 46°
2026-05-06 05:43 35.65560 -115.65422 15291 ft 293 kts 46°
2026-05-06 05:43 35.66929 -115.63572 15154 ft 292 kts 47°
2026-05-06 05:43 35.68295 -115.61722 14993 ft 292 kts 47°
2026-05-06 05:44 35.69656 -115.59881 14846 ft 290 kts 46°
2026-05-06 05:44 35.71014 -115.58042 14704 ft 290 kts 46°
2026-05-06 05:44 35.72405 -115.56256 14559 ft 289 kts 41°
2026-05-06 05:44 35.73432 -115.55222 14451 ft 288 kts 36°
2026-05-06 05:45 35.75136 -115.53925 14315 ft 287 kts 28°
2026-05-06 05:45 35.76888 -115.52740 14166 ft 287 kts 29°
2026-05-06 05:45 35.78630 -115.51534 14028 ft 286 kts 29°
2026-05-06 05:45 35.80356 -115.50327 13879 ft 285 kts 30°
2026-05-06 05:46 35.82638 -115.48721 13687 ft 285 kts 30°
2026-05-06 05:46 35.84365 -115.47508 13526 ft 286 kts 30°
2026-05-06 05:46 35.85533 -115.46687 13423 ft 286 kts 30°
2026-05-06 05:46 35.87263 -115.45472 13282 ft 286 kts 30°
2026-05-06 05:47 35.88985 -115.44260 13134 ft 285 kts 30°
2026-05-06 05:47 35.90704 -115.43050 13021 ft 284 kts 30°
2026-05-06 05:47 35.92421 -115.41846 12854 ft 283 kts 29°
2026-05-06 05:47 35.94128 -115.40654 12529 ft 281 kts 29°
2026-05-06 05:48 35.95824 -115.39471 12149 ft 278 kts 29°
2026-05-06 05:48 35.97516 -115.38291 11865 ft 281 kts 29°
2026-05-06 05:48 35.99224 -115.37094 11584 ft 282 kts 30°
2026-05-06 05:48 36.00663 -115.35524 11304 ft 283 kts 52°
2026-05-06 05:49 36.01448 -115.33299 11033 ft 288 kts 77°
2026-05-06 05:49 36.01461 -115.30816 10729 ft 291 kts 92°
2026-05-06 05:49 36.01288 -115.28292 10436 ft 290 kts 92°
2026-05-06 05:49 36.01137 -115.25847 10183 ft 288 kts 91°
2026-05-06 05:50 36.01004 -115.23378 9885 ft 288 kts 91°
2026-05-06 05:50 36.00879 -115.20880 9601 ft 287 kts 91°
2026-05-06 05:50 36.00763 -115.18459 9315 ft 285 kts 91°
2026-05-06 05:50 36.00646 -115.16023 9114 ft 284 kts 91°
2026-05-06 05:51 36.00529 -115.13597 9044 ft 280 kts 91°
2026-05-06 05:51 36.00412 -115.11242 8956 ft 268 kts 91°
2026-05-06 05:51 36.00299 -115.09018 8804 ft 251 kts 91°
2026-05-06 05:51 36.00193 -115.06935 8564 ft 238 kts 90°
2026-05-06 05:52 36.00093 -115.04924 8284 ft 229 kts 91°
2026-05-06 05:52 35.99998 -115.03022 8152 ft 215 kts 91°
2026-05-06 05:52 35.99912 -115.01242 8082 ft 200 kts 90°
2026-05-06 05:52 35.99903 -114.99581 7955 ft 187 kts 88°
2026-05-06 05:53 35.99907 -114.98008 7750 ft 181 kts 88°
2026-05-06 05:53 35.99908 -114.96459 7466 ft 180 kts 89°
2026-05-06 05:53 35.99904 -114.94910 7179 ft 179 kts 90°
2026-05-06 05:53 35.99897 -114.93432 7015 ft 166 kts 91°
2026-05-06 05:54 36.00103 -114.92056 6589 ft 167 kts 63°
2026-05-06 05:54 36.00941 -114.91066 6134 ft 168 kts 29°
2026-05-06 05:54 36.01958 -114.90400 5875 ft 161 kts 25°
2026-05-06 05:54 36.03038 -114.89801 5801 ft 175 kts 16°
2026-05-06 05:55 36.04214 -114.89709 5750 ft 166 kts 346°
2026-05-06 05:55 36.05254 -114.90251 5750 ft 161 kts 322°
2026-05-06 05:55 36.06203 -114.90991 5645 ft 160 kts 323°
2026-05-06 05:55 36.07107 -114.91782 5361 ft 158 kts 308°
2026-05-06 05:56 36.07556 -114.92938 5173 ft 152 kts 277°
2026-05-06 05:56 36.07655 -114.94259 4932 ft 151 kts 266°
2026-05-06 05:56 36.07639 -114.95547 4753 ft 153 kts 266°
2026-05-06 05:56 36.07540 -114.96804 4542 ft 142 kts 249°
2026-05-06 05:57 36.07325 -114.98065 4341 ft 153 kts 264°
2026-05-06 05:57 36.07387 -114.99332 4153 ft 145 kts 267°
2026-05-06 05:57 36.07360 -115.00616 3970 ft 150 kts 267°
2026-05-06 05:57 36.07375 -115.01876 3782 ft 142 kts 266°
2026-05-06 05:58 36.07368 -115.03106 3590 ft 145 kts 266°
2026-05-06 05:58 36.07364 -115.04326 3413 ft 140 kts 267°
2026-05-06 05:58 36.07367 -115.05558 3240 ft 147 kts 266°
2026-05-06 05:58 36.07364 -115.06800 3057 ft 145 kts 267°
2026-05-06 05:59 36.07355 -115.08079 2866 ft 152 kts 264°
2026-05-06 05:59 36.07378 -115.09343 2585 ft 144 kts 266°
2026-05-06 05:59 36.07398 -115.10608 2507 ft 148 kts 263°
2026-05-06 05:59 36.07374 -115.11855 2295 ft 139 kts 263°
2026-05-06 06:00 36.07357 -115.13058 2207 ft 145 kts 264°
2026-05-06 06:00 36.07350 -115.14251 2133 ft 108 kts 270°
2026-05-06 06:00 36.07330 -115.14842 2130 ft 52 kts 262°
2026-05-06 06:00 36.07372 -115.15216 2126 ft 38 kts 277°
2026-05-06 06:01 36.07463 -115.15500 2132 ft 34 kts 301°
2026-05-06 06:01 36.07480 -115.15538 2128 ft 0 kts 298°
2026-05-06 06:02 36.07489 -115.15557 2128 ft 10 kts 302°
2026-05-06 06:02 36.07554 -115.15646 2130 ft 16 kts 316°
2026-05-06 06:02 36.07695 -115.15799 2129 ft 35 kts 334°
2026-05-06 06:03 36.07838 -115.15807 2130 ft 10 kts 359°
2026-05-06 06:03 36.07911 -115.15812 2130 ft 12 kts 356°
2026-05-06 06:03 36.08017 -115.15820 2130 ft 21 kts 357°
2026-05-06 06:03 36.08196 -115.15822 2133 ft 30 kts
2026-05-06 06:04 36.08367 -115.15785 2130 ft 26 kts 36°
2026-05-06 06:04 36.08397 -115.15750 2130 ft 4 kts 44°
2026-05-06 06:04 36.08425 -115.15716 2130 ft 5 kts 43°
2026-05-06 06:04 36.08429 -115.15713 2130 ft 0 kts 43°
2026-05-06 06:05 36.08441 -115.15699 2129 ft 6 kts 43°
2026-05-06 06:05 36.08466 -115.15669 2129 ft 3 kts 43°
2026-05-06 06:05 36.08532 -115.15617 2130 ft 5 kts 29°
2026-05-06 06:05 36.08533 -115.15617 2130 ft 2 kts 30°
2026-05-06 06:06 36.08533 -115.15616 2130 ft 0 kts 30°
2026-05-06 06:06 36.08543 -115.15602 2127 ft 7 kts 46°
2026-05-06 06:06 36.08553 -115.15538 2124 ft 3 kts 96°
2026-05-06 06:06 36.08550 -115.15528 2123 ft 2 kts 104°
2026-05-06 06:07 36.08544 -115.15508 2127 ft 0 kts 109°